CW7500 Weather Reports


Display with metric or nautical units.
time (UTC)temp
F
wind
direction
speed
MPH
gust
MPH
rain 1hr
in
rain 24hr
in
rain mn
in
humidity
%
barometer
mb
20260902000008 60 65 0.0 0.0 0.00 0.14 0.14 100 1017.5
20260901235507 60 43 0.0 0.0 0.00 0.14 0.14 100 1017.5
20260901235008 60 20 0.0 1.0 0.00 0.14 0.14 100 1017.5
20260901234507 60 38 0.0 1.0 0.00 0.14 0.14 100 1017.4
20260901234007 60 51 0.0 1.0 0.00 0.14 0.14 100 1017.5
20260901233507 60 41 0.0 0.0 0.00 0.14 0.14 100 1017.3
20260901233007 60 126 0.0 0.0 0.00 0.14 0.14 100 1017.2
20260901232507 60 75 0.0 0.0 0.00 0.14 0.14 100 1017.2
20260901232007 60 29 0.0 1.0 0.00 0.14 0.14 100 1017.3
20260901231507 60 183 0.0 0.0 0.00 0.14 0.14 100 1017.3
20260901231007 60 88 1.0 1.0 0.00 0.14 0.14 100 1017.3
20260901230507 60 173 0.0 1.0 0.00 0.14 0.14 100 1017.3
20260901230007 60 56 0.0 1.0 0.00 0.14 0.14 100 1017.2
20260901225507 60 108 0.0 1.0 0.00 0.14 0.14 100 1017.3
20260901225007 60 117 1.0 3.0 0.00 0.14 0.14 100 1017.1
20260901224507 60 287 0.0 0.0 0.00 0.14 0.14 100 1017.0
20260901224007 60 142 0.0 0.0 0.00 0.14 0.14 100 1017.0
20260901223507 60 137 0.0 0.0 0.00 0.14 0.14 100 1017.0
20260901223007 60 186 0.0 1.0 0.00 0.14 0.14 100 1017.1
20260901222507 60 137 0.0 2.0 0.00 0.14 0.14 100 1017.2
20260901222007 60 165 0.0 1.0 0.00 0.14 0.14 100 1017.0
20260901221507 60 214 0.0 2.0 0.00 0.14 0.14 100 1017.2
20260901221007 60 206 1.0 1.0 0.00 0.14 0.14 100 1017.2
20260901220508 60 166 1.0 1.0 0.00 0.14 0.14 100 1017.2
20260901220007 60 206 0.0 1.0 0.00 0.14 0.14 100 1017.2
20260901215007 60 240 1.0 1.0 0.00 0.14 0.14 100 1017.2
20260901214507 60 150 0.0 5.0 0.00 0.14 0.14 100 1017.3
20260901213507 59 233 1.0 2.0 0.00 0.14 0.14 99 1017.2
20260901212507 60 280 1.0 3.0 0.00 0.14 0.14 99 1017.0
20260901211507 60 160 1.0 2.0 0.00 0.14 0.14 97 1017.1
20260901211007 60 128 1.0 3.0 0.00 0.14 0.14 98 1017.1
20260901210507 60 166 0.0 2.0 0.00 0.14 0.14 98 1017.0
20260901210007 60 186 2.0 6.0 0.00 0.14 0.14 98 1017.0
20260901205007 60 211 1.0 2.0 0.00 0.14 0.14 99 1016.9
20260901204507 60 191 1.0 5.0 0.00 0.14 0.14 98 1016.9
20260901204006 60 180 1.0 2.0 0.00 0.14 0.14 99 1016.8
20260901203507 61 229 1.0 2.0 0.00 0.14 0.14 100 1016.7
20260901203006 60 187 2.0 5.0 0.00 0.14 0.14 100 1016.5
20260901202507 60 160 1.0 2.0 0.00 0.14 0.14 100 1016.6
20260901202007 61 235 1.0 2.0 0.00 0.14 0.14 100 1016.5
20260901201007 61 196 0.0 2.0 0.00 0.14 0.14 99 1016.5
20260901200506 61 214 1.0 3.0 0.00 0.14 0.14 99 1016.6
20260901200007 61 133 1.0 1.0 0.00 0.14 0.14 99 1016.5
20260901195506 61 190 1.0 2.0 0.00 0.14 0.14 97 1016.5
20260901195007 61 237 1.0 2.0 0.00 0.14 0.14 97 1016.6
20260901194506 61 166 1.0 3.0 0.00 0.14 0.14 96 1016.5
20260901194007 61 180 2.0 5.0 0.00 0.14 0.14 96 1016.5
20260901193506 61 227 1.0 2.0 0.00 0.14 0.14 95 1016.5
20260901193006 62 63 1.0 2.0 0.00 0.14 0.14 96 1016.4
20260901192507 62 132 2.0 5.0 0.00 0.14 0.14 95 1016.6
20260901192006 63 130 1.0 3.0 0.00 0.14 0.14 97 1016.4
20260901191506 63 193 1.0 2.0 0.00 0.14 0.14 97 1016.5
20260901190507 63 145 1.0 3.0 0.00 0.14 0.14 97 1016.4
20260901190006 63 235 1.0 2.0 0.00 0.14 0.14 97 1016.6
20260901185507 63 164 0.0 2.0 0.00 0.14 0.14 97 1016.6
20260901185007 63 233 1.0 2.0 0.00 0.14 0.14 97 1016.6
20260901184506 63 138 1.0 2.0 0.00 0.14 0.14 98 1016.3
20260901184007 63 244 1.0 5.0 0.00 0.14 0.14 97 1016.3
20260901183506 63 113 0.0 1.0 0.00 0.14 0.14 98 1016.4
20260901183006 63 65 0.0 3.0 0.00 0.14 0.14 98 1016.4
20260901182006 64 197 1.0 2.0 0.02 0.14 0.14 98 1016.2
20260901181507 64 153 1.0 2.0 0.02 0.14 0.14 98 1016.1
20260901181006 64 131 0.0 2.0 0.02 0.14 0.14 98 1016.1
20260901180506 64 125 1.0 3.0 0.02 0.14 0.14 97 1016.0
20260901180006 64 127 2.0 2.0 0.02 0.14 0.14 99 1016.0
20260901175507 65 207 1.0 3.0 0.02 0.14 0.14 99 1016.0
20260901175006 65 198 0.0 2.0 0.02 0.14 0.14 100 1015.9
20260901174506 65 163 0.0 2.0 0.02 0.14 0.14 100 1015.7
20260901174008 65 229 1.0 2.0 0.02 0.14 0.14 99 1015.7
20260901173506 65 180 1.0 2.0 0.02 0.14 0.14 98 1015.6
20260901173006 65 185 0.0 3.0 0.02 0.14 0.14 96 1015.5
20260901172506 65 206 0.0 2.0 0.02 0.14 0.14 94 1015.5
20260901172006 65 174 1.0 2.0 0.00 0.12 0.12 92 1015.7
20260901171006 66 183 2.0 3.0 0.00 0.12 0.12 92 1015.9
20260901170007 66 55 1.0 3.0 0.00 0.12 0.12 90 1015.7
20260901165007 67 233 1.0 3.0 0.00 0.12 0.12 91 1015.5
20260901164506 67 251 1.0 5.0 0.00 0.12 0.12 91 1015.5
20260901164006 67 215 1.0 2.0 0.00 0.12 0.12 92 1015.6
20260901163506 67 167 1.0 3.0 0.00 0.12 0.12 90 1015.7
20260901163006 67 231 1.0 2.0 0.00 0.12 0.12 92 1015.7
20260901162506 67 202 1.0 2.0 0.00 0.12 0.12 92 1015.7
20260901162006 67 215 1.0 2.0 0.00 0.12 0.12 90 1015.6
20260901161506 67 240 1.0 3.0 0.00 0.12 0.12 90 1015.6
20260901161006 68 247 1.0 2.0 0.00 0.12 0.12 87 1015.6
20260901160506 68 155 1.0 3.0 0.00 0.12 0.12 89 1015.5
20260901155506 69 162 1.0 2.0 0.00 0.12 0.12 94 1015.5
20260901155006 69 189 0.0 5.0 0.00 0.12 0.12 93 1015.5
20260901154506 69 186 1.0 1.0 0.00 0.12 0.12 94 1015.8
20260901154006 69 218 0.0 1.0 0.00 0.12 0.12 96 1015.8
20260901153506 68 352 1.0 6.0 0.00 0.12 0.12 95 1015.6
20260901152506 68 43 0.0 2.0 0.00 0.12 0.12 97 1015.7
20260901152006 68 144 0.0 2.0 0.00 0.12 0.12 97 1016.0
20260901151506 68 234 0.0 2.0 0.00 0.12 0.12 96 1016.0
20260901151006 68 153 1.0 7.0 0.00 0.12 0.12 96 1016.0
20260901150506 68 138 0.0 2.0 0.00 0.12 0.12 97 1016.0
20260901150006 68 120 1.0 3.0 0.00 0.12 0.12 97 1016.0
20260901145006 68 150 0.0 1.0 0.00 0.12 0.12 100 1016.0
20260901144506 67 89 2.0 3.0 0.02 0.12 0.12 100 1016.0
20260901144006 67 81 1.0 3.0 0.02 0.12 0.12 100 1016.1
20260901143006 66 75 1.0 3.0 0.02 0.12 0.12 100 1016.1
20260901142506 66 80 1.0 3.0 0.04 0.12 0.12 100 1016.3
20260901142005 65 166 0.0 2.0 0.04 0.12 0.12 100 1016.4
20260901141506 66 77 1.0 2.0 0.04 0.12 0.12 100 1016.4
20260901141105 66 122 0.0 2.0 0.04 0.12 0.12 100 1016.5
20260901140605 66 68 1.0 3.0 0.04 0.12 0.12 100 1016.5
20260901135606 66 194 1.0 2.0 0.06 0.12 0.12 100 1016.2
20260901135106 65 317 1.0 3.0 0.06 0.12 0.12 100 1016.5
20260901134605 65 130 0.0 1.0 0.04 0.10 0.10 100 1016.6
20260901133606 65 75 0.0 1.0 0.04 0.10 0.10 100 1016.3
20260901133106 65 133 0.0 0.0 0.06 0.10 0.10 100 1016.5
20260901132606 65 96 0.0 0.0 0.04 0.08 0.08 100 1016.5
20260901131606 65 71 2.0 2.0 0.06 0.08 0.08 100 1016.6
20260901131105 65 63 0.0 1.0 0.08 0.08 0.08 100 1016.6
20260901130606 65 38 1.0 1.0 0.08 0.08 0.08 100 1016.4
20260901130106 65 92 0.0 1.0 0.08 0.08 0.08 100 1016.4
20260901125606 65 78 0.0 1.0 0.06 0.06 0.06 100 1016.4
20260901125105 65 65 0.0 0.0 0.06 0.06 0.06 100 1016.3
20260901124605 65 137 0.0 1.0 0.06 0.06 0.06 100 1016.4
20260901124106 65 53 0.0 1.0 0.06 0.06 0.06 100 1016.3
20260901123605 64 108 1.0 1.0 0.06 0.06 0.06 100 1016.4
20260901123106 64 293 0.0 0.0 0.04 0.04 0.04 100 1016.4
20260901122605 64 299 0.0 1.0 0.04 0.04 0.04 100 1016.4
20260901121106 65 18 0.0 0.0 0.00 0.00 0.00 100 1016.2
20260901120106 64 307 0.0 0.0 0.00 0.00 0.00 100 1016.4
20260901115605 64 44 0.0 1.0 0.00 0.00 0.00 100 1016.2
20260901115105 64 48 0.0 1.0 0.00 0.00 0.00 100 1016.3
20260901114606 64 321 0.0 2.0 0.00 0.00 0.00 100 1016.3
20260901114106 64 27 0.0 1.0 0.00 0.00 0.00 100 1016.4
20260901113606 64 254 0.0 1.0 0.00 0.00 0.00 100 1016.5
20260901113106 64 271 0.0 1.0 0.00 0.00 0.00 100 1016.3
20260901112605 64 40 0.0 0.0 0.00 0.00 0.00 100 1016.3
20260901112106 64 20 0.0 0.0 0.00 0.00 0.00 100 1016.1
20260901111606 64 342 0.0 1.0 0.00 0.00 0.00 100 1016.1
20260901111106 64 317 0.0 0.0 0.00 0.00 0.00 100 1016.0
20260901110605 64 245 0.0 0.0 0.00 0.00 0.00 99 1016.0
20260901110105 64 245 0.0 0.0 0.00 0.00 0.00 99 1016.0
20260901105606 64 221 0.0 1.0 0.00 0.00 0.00 98 1016.0
20260901105105 64 189 0.0 1.0 0.00 0.00 0.00 98 1016.0
20260901104605 64 251 0.0 1.0 0.00 0.00 0.00 97 1016.0
20260901104106 64 32 0.0 1.0 0.00 0.00 0.00 98 1016.0
20260901103606 64 38 1.0 2.0 0.00 0.00 0.00 97 1016.0
20260901102605 64 53 1.0 1.0 0.00 0.00 0.00 96 1015.9
20260901102106 64 277 0.0 0.0 0.00 0.00 0.00 96 1015.9
20260901101605 64 277 0.0 0.0 0.00 0.00 0.00 96 1015.9
20260901101105 64 280 0.0 0.0 0.00 0.00 0.00 96 1015.9
20260901095606 64 26 0.0 0.0 0.00 0.00 0.00 94 1015.6
20260901094105 64 168 0.0 0.0 0.00 0.00 0.00 93 1015.7
20260901093605 64 168 0.0 1.0 0.00 0.00 0.00 93 1015.7
20260901093105 64 76 0.0 0.0 0.00 0.00 0.00 92 1015.8
20260901092605 64 89 0.0 0.0 0.00 0.00 0.00 92 1015.9
20260901092105 64 114 0.0 0.0 0.00 0.00 0.00 92 1015.9
20260901091605 64 51 0.0 0.0 0.00 0.00 0.00 92 1015.7
20260901091105 64 94 0.0 1.0 0.00 0.00 0.00 92 1015.7
20260901090105 64 207 0.0 0.0 0.00 0.00 0.00 91 1015.9
20260901085605 64 203 0.0 0.0 0.00 0.00 0.00 91 1015.9
20260901085105 64 128 0.0 0.0 0.00 0.00 0.00 91 1015.7
20260901084605 64 175 0.0 0.0 0.00 0.00 0.00 91 1015.9
20260901083606 64 156 0.0 1.0 0.00 0.00 0.00 91 1016.0
20260901083105 64 153 0.0 1.0 0.00 0.00 0.00 92 1016.0
20260901082605 64 84 0.0 1.0 0.00 0.00 0.00 92 1016.0
20260901082105 64 187 0.0 1.0 0.00 0.00 0.00 92 1016.0
20260901081605 64 169 0.0 1.0 0.00 0.00 0.00 92 1016.1
20260901081105 64 162 0.0 1.0 0.00 0.00 0.00 92 1016.1
20260901080605 64 158 0.0 1.0 0.00 0.00 0.00 92 1016.3
20260901080105 65 146 0.0 0.0 0.00 0.00 0.00 92 1016.5
20260901075605 65 146 0.0 0.0 0.00 0.00 0.00 91 1016.4
20260901075105 65 145 0.0 0.0 0.00 0.00 0.00 91 1016.4
20260901073605 65 134 0.0 0.0 0.00 0.00 0.00 88 1016.6
20260901073105 65 152 0.0 0.0 0.00 0.00 0.00 88 1016.6
20260901072604 65 116 0.0 0.0 0.00 0.00 0.00 87 1016.6
20260901072105 65 107 0.0 0.0 0.00 0.00 0.00 87 1016.6
20260901071605 65 70 0.0 1.0 0.00 0.00 0.00 88 1016.5
20260901070605 65 108 0.0 2.0 0.00 0.00 0.00 88 1016.5
20260901070105 65 125 0.0 1.0 0.00 0.00 0.00 88 1016.4
20260901065605 65 167 0.0 1.0 0.00 0.00 0.00 88 1016.4
20260901064605 65 172 0.0 2.0 0.00 0.00 0.00 87 1016.4
20260901064105 65 158 0.0 0.0 0.00 0.00 0.00 87 1016.5
20260901063605 65 132 0.0 0.0 0.00 0.00 0.00 87 1016.5
20260901063105 65 146 0.0 1.0 0.00 0.00 0.00 87 1016.5
20260901062604 65 210 0.0 1.0 0.00 0.00 0.00 87 1016.8
20260901062105 65 201 0.0 1.0 0.00 0.00 0.00 87 1016.8
20260901061604 65 205 0.0 0.0 0.00 0.00 0.00 87 1016.8
20260901061104 65 160 0.0 1.0 0.00 0.00 0.00 86 1016.7
20260901060605 65 171 0.0 1.0 0.00 0.00 0.00 86 1016.5
20260901060104 65 67 0.0 1.0 0.00 0.00 0.00 86 1016.7
20260901055605 65 215 0.0 1.0 0.00 0.00 0.00 86 1016.5
20260901055105 65 169 1.0 2.0 0.00 0.00 0.00 86 1016.5
20260901054605 65 183 1.0 2.0 0.00 0.00 0.00 86 1016.5
20260901054105 65 143 1.0 1.0 0.00 0.00 0.00 86 1016.5
20260901053605 65 137 0.0 1.0 0.00 0.00 0.00 85 1016.5
20260901053104 65 184 0.0 1.0 0.00 0.00 0.00 86 1016.7
20260901052105 65 143 0.0 1.0 0.00 0.00 0.00 85 1016.6
20260901051105 66 113 0.0 1.0 0.00 0.00 0.00 85 1016.9
20260901050605 65 100 1.0 1.0 0.00 0.00 0.00 84 1016.9
20260901050104 66 199 0.0 1.0 0.00 0.00 0.00 84 1017.1
20260901045605 66 174 0.0 1.0 0.00 0.00 0.00 83 1016.9
20260901045104 66 68 1.0 2.0 0.00 0.00 0.00 83 1016.8
20260901044104 66 239 1.0 2.0 0.00 0.00 0.00 83 1016.6
20260901043604 66 206 1.0 2.0 0.00 0.00 0.00 83 1016.8
20260901043105 66 184 0.0 2.0 0.00 0.00 0.00 82 1016.9
20260901042604 66 197 0.0 1.0 0.00 0.00 0.00 82 1017.0
20260901042104 66 142 1.0 2.0 0.00 0.00 0.00 81 1016.8
20260901041604 66 168 0.0 2.0 0.00 0.00 0.00 82 1016.8
20260901041106 66 208 1.0 1.0 0.00 0.00 0.00 82 1016.9
20260901040605 66 70 0.0 2.0 0.00 0.00 0.00 81 1017.0
20260901040104 66 237 0.0 2.0 0.00 0.00 0.00 81 1017.0
20260901035604 66 224 1.0 2.0 0.00 0.00 0.00 84 1017.0
20260901034104 66 181 1.0 2.0 0.00 0.02 0.00 81 1017.1
20260901033604 66 228 1.0 2.0 0.00 0.02 0.00 80 1017.0
20260901033104 66 203 1.0 2.0 0.00 0.02 0.00 81 1017.1
20260901032104 66 175 0.0 3.0 0.00 0.02 0.00 80 1017.0
20260901031604 66 182 1.0 2.0 0.00 0.02 0.00 80 1017.0
20260901031105 66 120 0.0 3.0 0.00 0.02 0.00 79 1017.1
20260901030604 66 139 0.0 2.0 0.00 0.02 0.00 79 1017.1
20260901030104 66 168 1.0 2.0 0.00 0.04 0.00 79 1017.0
20260901025604 66 85 1.0 2.0 0.00 0.14 0.00 79 1016.9
20260901024604 66 168 1.0 2.0 0.00 0.31 0.00 77 1016.9
20260901024104 66 145 1.0 3.0 0.00 0.35 0.00 78 1016.9
20260901023604 66 82 1.0 3.0 0.00 0.37 0.00 79 1016.9
20260901023104 66 245 1.0 5.0 0.00 0.37 0.00 79 1017.1
20260901022104 67 255 1.0 5.0 0.00 0.37 0.00 81 1016.9
20260901021604 67 204 1.0 2.0 0.00 0.37 0.00 84 1017.1
20260901021104 67 171 0.0 1.0 0.00 0.37 0.00 85 1016.9
20260901020604 67 169 0.0 1.0 0.00 0.37 0.00 85 1017.1
20260901020104 67 199 1.0 2.0 0.00 0.37 0.00 85 1017.1
20260901015604 67 95 1.0 2.0 0.00 0.37 0.00 85 1017.1
20260901015104 67 191 0.0 2.0 0.00 0.37 0.00 86 1017.1
20260901014604 67 159 0.0 1.0 0.00 0.37 0.00 86 1017.1
20260901014104 67 114 0.0 5.0 0.00 0.37 0.00 85 1017.1
20260901013604 67 109 1.0 1.0 0.00 0.37 0.00 85 1017.1
20260901013104 67 146 0.0 2.0 0.00 0.37 0.00 86 1017.1
20260901012603 67 181 0.0 1.0 0.00 0.37 0.00 87 1017.2
20260901012104 67 215 1.0 2.0 0.00 0.37 0.00 86 1017.2
20260901011604 67 220 1.0 3.0 0.00 0.37 0.00 85 1017.2
20260901011104 67 123 0.0 2.0 0.00 0.37 0.00 85 1017.2
20260901010604 67 152 1.0 2.0 0.00 0.37 0.00 86 1017.2
20260901010103 68 103 1.0 2.0 0.00 0.37 0.00 85 1017.2
20260901005604 68 240 1.0 2.0 0.00 0.37 0.00 85 1017.2
20260901005104 68 119 0.0 2.0 0.00 0.37 0.00 84 1017.0
20260901004604 68 121 1.0 2.0 0.00 0.37 0.00 84 1017.0
20260901004104 68 40 0.0 1.0 0.00 0.37 0.00 83 1016.9
20260901003604 68 124 1.0 3.0 0.00 0.37 0.00 81 1016.9
20260901003104 68 143 0.0 1.0 0.00 0.37 0.00 81 1016.9
20260901002603 68 145 1.0 1.0 0.00 0.37 0.00 80 1016.8
20260901002104 68 134 0.0 1.0 0.00 0.37 0.00 80 1016.9
20260901001603 69 105 0.0 1.0 0.00 0.37 0.00 79 1016.9
20260901001104 69 121 1.0 2.0 0.00 0.37 0.00 78 1016.9